sat.trackr.live / text

‹ back to catalog

STARLINK-2509

NORAD 48318 · 2021-036AU

PAYLOAD ACTIVE UNKNOWN

§ Identity

Operator
Country
US
Launch date
2021-04-29
Launch site
AFETR
Launch vehicle
Mass (kg)
RCS (m²)

Purposes: comms

External: N2YO · Heavens-Above · Gunter

§ Orbital elements

Epoch: 2026-05-25T04:29:36.373056Z

Period
94.01 min
Inclination
53.1597°
Eccentricity
0.0001104
Mean motion
15.31701283 rev/d
Perigee alt
470.0 km
Apogee alt
471.5 km
Semi-major
6,848.9 km
B*
1.4275e-5
RAAN
106.0704°
Arg perigee
92.6510°
Mean anomaly
267.4617°
Rev number
27,974

§ Raw data

STARLINK-25091 48318U 21036AU  26145.18722654  .00000078  00000+0  14275-4 0  99962 48318  53.1597 106.0704 0001104  92.6510 267.4617 15.31701283279746

JSON: /api/v1/satellites/48318 · /tle

For live sub-satellite position, see the globe view (requires WebGL).

§ Visibility from observer

Set your observer location to see the next 7 days of passes ≥ 10°. The values pass through the URL so the page stays shareable.

No JS? Fill the form by hand. The geolocation button needs JavaScript.